Regional Weather Roundup
Issued by NWS State College, PA

Home | Current Version | Previous Version | Graphics & Text | Print | Product List | Glossary On
Versions: 1 2 3 4 5 6 7 8 9 10 11 12 13 14 15 16 17 18 19 20 21 22 23 24 25 26 27 28 29 30 31 32 33 34 35 36 37 38 39 40 41 42 43 44 45 46 47 48 49 50
000
ASUS41 KCTP 061610
RWRCTP

REGIONAL WEATHER ROUNDUP
NATIONAL WEATHER SERVICE STATE COLLEGE PA
1200 PM EDT WED MAY 06 2015

Note: "fair" indicates few or no clouds below 12,000 feet with no
significant weather and/or obstructions to visibility.

* = STATION THAT DOES NOT REPORT PRECIPITATION /E.G. RAIN...SNOW...ETC/
    THUNDER OR FOG.

PAZ002>004-007>009-013>016-020>023-029>032-061700-
WESTERN PENNSYLVANIA

CITY           SKY/WX    TMP DP  RH WIND       PRES   REMARKS
ERIE           PTSUNNY   63  55  75 NW5       30.23F HAZE
MEADVILLE      CLOUDY    66  57  72 NW5       30.24S
FRANKLIN*      CLOUDY    70  57  64 CALM      30.25S
NEW CASTLE     FAIR      76  62  61 CALM      30.22F
BEAVER COUNTY  SUNNY     73  59  60 W3        30.22F
BUTLER*        SUNNY     73  59  60 E5        30.24F
PITTSBURGH INT MOSUNNY   76  60  57 VRB3      30.21F
PITTSBURGH     SUNNY     75  54  47 SW6       30.21F
INDIANA*       SUNNY     73  59  60 VRB5      30.26F
LATROBE        MOSUNNY   75  59  57 VRB7      30.24F
WASHINGTON CO* SUNNY     79  59  50 NW8       30.24S
$$

PAZ004>006-010>012-017>019-024>028-033>037-041-042-045-046-049>053-061700-
CENTRAL PENNSYLVANIA

CITY           SKY/WX    TMP DP  RH WIND       PRES   REMARKS
BRADFORD       CLOUDY    54  52  93 E5        30.28R FOG
DUBOIS         PTSUNNY   66  58  75 E5        30.25S
CLEARFIELD     CLOUDY    59  57  93 NE8       30.27S FOG
JOHNSTOWN      SUNNY     72  56  57 W7        30.25F
ALTOONA        SUNNY     70  58  65 E5        30.25F
STATE COLLEGE  CLOUDY    59  57  94 NE8       30.27S FOG
WILLIAMSPORT   LGT RAIN  58  54  86 E9        30.29R
SELINSGROVE    CLOUDY    62  58  86 VRB3      30.29S
FT INDIANTOWN  PTSUNNY   61  57  86 NE2       30.28F
CAPITAL CITY   MOSUNNY   64  56  75 NE7       30.28F
HARRISBURG     PTSUNNY   63  54  72 VRB5      30.26F
YORK           PTSUNNY   70  55  59 N13       30.27R
$$

PAZ038>040-043-044-047-048-054-055-060>062-067>071-061700-
EASTERN PENNSYLVANIA

CITY           SKY/WX    TMP DP  RH WIND       PRES   REMARKS
SCRANTON       CLOUDY    57  50  77 VRB3      30.31S
MOUNT POCONO   LGT RAIN  51  48  89 E6        30.32S
ALLENTOWN      CLOUDY    61  49  64 NE10      30.31S
QUAKERTOWN*    PTSUNNY   66  45  45 NE7       30.31S
READING        LGT RAIN  63  50  62 NE10      30.27F FOG
LANCASTER      LGT RAIN  63  54  72 SE8       30.26F
COATESVILLE    MOSUNNY   68  52  56 E10G18    30.28S
POTTSTOWN      CLOUDY    67  46  47 NE9       30.29S
BLUE BELL      MOSUNNY   73  45  35 NE8G16    30.27S
DOYLESTOWN     PTSUNNY   68  42  38 VRB3      30.28S
WILLOW GROVE   NOT AVBL
NORTH PHILA    MOSUNNY   74  43  32 E15       30.28F
PHILADELPHIA   PTSUNNY   70  46  42 E13       30.27F
$$



USA.gov is the U.S. government's official web portal to all federal, state and local government web resources and services.